Location: Biltmore Gardens
(41.6070°N, 83.4666°W)
Time: 00:00:13
(UTC+00:00)

N. Korean satellite - Pass Details

Date: 11 March 2021
Orbit: 453 x 499 km, 97.2° (Epoch: 11 April)

Event Time Altitude Azimuth Distance (km) Brightness Sun altitude
Rises 11:14:03 0° 7° (N) 2,553 10.4 -7.9°
Reaches altitude 10° 11:16:07 10° 3° (N) 1,676 9.4 -7.5°
Maximum altitude 11:19:40 57° 285° (WNW) 582 6.6 -6.9°
Drops below altitude 10° 11:23:14 10° 206° (SSW) 1,685 9.0 -6.2°
Sets 11:25:19 0° 202° (SSW) 2,568 10.0 -5.8°
